Other Public Products
Issued by NWS Grand Forks, ND

Home | Current Version | Previous Version | Graphics & Text | Print | Product List | Glossary On
Versions: 1 2 3 4 5 6 7 8 9 10 11 12 13 14 15 16 17 18 19 20 21 22 23 24 25 26 27 28 29 30 31 32 33 34 35 36 37 38 39 40 41 42 43 44 45 46 47 48 49 50
000
FPUS83 KFGF 060310
OPUFGF
PRAIRIE TO PINES WEATHER ROUNDUP
NATIONAL WEATHER SERVICE EASTERN NORTH DAKOTA/GRAND FORKS ND
1000 PM CDT SUN JUL 05 2015

 **SATELLITE DATA USED TO AUGMENT SKY COVER AT AUTOMATED STATIONS**
 *****  WEATHER ACROSS EASTERN NORTH DAKOTA  *****

CITY           SKY/WX    TMP DP  RH WIND       PRES   REMARKS
GRAND FORKS    CLOUDY    65  60  84 NW7       29.84F HAZE
GRAND FORKS AF CLOUDY    65  60  84 N7        29.87R
GRAND CITY NWS   N/A     64 N/A N/A VRB7        N/A
BUXTON         NOT AVBL
DEVILS LAKE    CLOUDY    64  55  72 NW8       29.91S
FARGO          PTCLDY    71  66  84 N13       29.84R
WAHPETON ARPT  PTCLDY    72  63  73 N12       29.83R
$$

 *****  WEATHER ACROSS CENTRAL AND WESTERN NORTH DAKOTA  *****

CITY           SKY/WX    TMP DP  RH WIND       PRES   REMARKS
JAMESTOWN      CLOUDY    70  65  84 N10       29.88F HAZE
BISMARCK       CLOUDY    70  61  73 N9        29.95F HAZE
MINOT          CLOUDY    63  54  72 NW9       29.98R HAZE
MINOT AFB      CLOUDY    65  62  87 NW8       29.98R
GARRISON         N/A     62  56  80 N8        29.99R
WILLISTON      CLOUDY    68  50  52 N8        30.05R
DICKINSON      CLOUDY    64  52  64 N7        30.02F
HETTINGER      CLOUDY    62  58  86 NW7       30.04F FOG
$$

 *****  OTHER OBSERVATIONS NORTHEAST NORTH DAKOTA  *****

CITY           SKY/WX    TMP DP  RH WIND       PRES   REMARKS
WALHALLA       FAIR      64  64 100 MISG      29.89R FOG
LANGDON        FAIR      64  61  88 NW12      29.92R FOG
CAVALIER       FAIR      64  61  88 W5        29.88R FOG
GRAFTON        FAIR      64  64 100 NW7       29.87S FOG
CANDO          FAIR      63  57  82 N8        29.94S HAZE
FORT TOTTEN    NOT AVBL
ROLLA          FAIR      61  57  88 NW9       29.97R FOG
RUGBY          NOT AVBL
 ***** THE ABOVE OBSERVATIONS ARE NON NWS ARE NOT QUALITY
        CONTROLLED AND MAY MIS-REPORT RAIN FOR SNOW...
$$

 *****  OTHER OBSERVATIONS SOUTHEAST NORTH DAKOTA *****

CITY           SKY/WX    TMP DP  RH WIND       PRES   REMARKS
COOPERSTOWN    NOT AVBL
VALLEY CITY    MOCLDY    68  68 100 N10       29.88S
OAKES            N/A     72  68  88 N13       29.88R
GWINNER        FAIR      72  66  83 N9        29.87R
BUFFALO        NOT AVBL
WYNDMERE         N/A     73  66  78 N10         N/A
 ***** THE ABOVE OBSERVATIONS ARE NON NWS ARE NOT QUALITY
       CONTROLLED AND MAY MIS-REPORT RAIN FOR SNOW...
$$

  *****  WEATHER ACROSS NORTHERN MINNESOTA  *****

CITY           SKY/WX    TMP DP  RH WIND       PRES   REMARKS
FLAG ISLAND    MOCLDY    68  61  77 NW13      29.83R HAZE
WARROAD        MOCLDY    64  61  88 NW7       29.85R FOG
ROSEAU         MOCLDY    64  57  77 NW6       29.85R HAZE
HALLOCK        CLOUDY    64  63  94 NW3       29.86S FOG
THF RVR FALLS  MOCLDY    66  63  88 N12       29.83F
HALSTAD        NOT AVBL
FOSSTON        CLEAR     64  63  94 CALM      29.82F
BAUDETTE       MOCLDY    67  61  81 NW10      29.82R HAZE
WASKISH        PTCLDY    68  63  83 N5        29.82R
CROOKSTON      CLOUDY    66  64  94 N12       29.84S FOG
$$
  *****  WEATHER ACROSS CENTRAL AND WEST MINNESOTA  *****

CITY           SKY/WX    TMP DP  RH WIND       PRES   REMARKS
BEMIDJI        PTCLDY    67  65  94 NW6       29.83R
PARK RAPIDS    PTCLDY    71  66  84 N6        29.82R
WADENA         CLOUDY    72  66  83 N7        29.83R
DETROIT LAKES  PTCLDY    70  64  83 N9        29.85R
MOORHEAD       PTCLDY    72  66  83 N9        29.85R
FERGUS FALLS   PTCLDY    73  64  73 N9G16     29.80R
ELBOW LAKE     MOCLDY    74  69  83 N10       29.83R
MORRIS MN      TSTM      70  66  88 W13       29.81R
STAPLES        LGT RAIN  72  70  94 W7        29.82R
WHEATON        MOCLDY    72  66  83 N5        29.85R
$$
  *****  WEATHER ELSEWHERE ACROSS MINNESOTA  *****

CITY           SKY/WX    TMP DP  RH WIND       PRES   REMARKS
DULUTH         CLOUDY    76  68  76 SW14      29.79R THUNDER
INTRNTL FALLS  MOCLDY    66  61  84 NW9       29.80R
ELY            CLOUDY    66  64  94 CALM      29.79S
CLOQUET        CLOUDY    73  66  78 S7        29.78S THUNDER
BRAINERD       TSTM      79  71  76 SW9       29.76R
HIBBING        CLOUDY    67  65  93 E5        29.79R
ALEXANDRIA     RAIN      69  67  93 NW6       29.84R
SAINT CLOUD    CLOUDY    80  71  74 S7        29.79R
MINNEAPOLIS    MOCLDY    80  67  64 S13G20    29.80R
$$

  *****  WEATHER ACROSS SOUTH DAKOTA  *****

CITY           SKY/WX    TMP DP  RH WIND       PRES   REMARKS
SIOUX FALLS    CLOUDY    81  73  76 SE12      29.76R
BROOKINGS      CLOUDY    79  72  78 S6        29.82R
WATERTOWN      TSTM      70  65  84 E3        29.87R
HURON          CLOUDY    71  69  93 NE18      29.80R
SISSETON         N/A     75  66  73 W3        29.85R
ABERDEEN       CLOUDY    74  64  71 N17G25    29.86R
MITCHELL       CLOUDY    81  75  82 SE5       29.75R
PIERRE         LGT RAIN  69  65  86 N21       29.87R
MOBRIDGE       LGT RAIN  68  66  93 N15       29.88F FOG
RAPID CITY     RAIN      63  61  93 N15       30.03S FOG
$$

  *****  SOME WEATHER IN NEARBY STATES *****

CITY           SKY/WX    TMP DP  RH WIND       PRES   REMARKS
GLASGOW MT     MOCLDY    63  51  65 W6        30.10R
GREAT FALLS MT LGT RAIN  50  49  96 N8        30.26R FOG
CHEYENNE WY    CLOUDY    61  58  90 N14G25    30.10S
SCOTTSBLUFF NE CLOUDY    67 N/A N/A W13       29.96R
OMAHA NE       MOCLDY    84  75  74 SE16      29.79R THUNDER HX  92
DES MOINES IA  PTCLDY    79  68  69 SE14      29.86F
DAVENPORT IA   CLEAR     73  65  75 S7        29.98S
CHICAGO IL     CLEAR     73  61  65 S7        30.02R
EAU CLAIRE WI  CLEAR     76  65  68 S9        29.84F
LA CROSSE WI   PTCLDY    77  65  66 S12       29.87F
$$

  *****  SOME NATIONAL WEATHER *****

CITY           SKY/WX    TMP DP  RH WIND       PRES   REMARKS
LA GUARDIA NY  MOCLDY    75  64  68 S6        30.13S
RALEIGH NC     CLOUDY    70  68  93 E5        30.12S
ATLANTA GA     MOCLDY    76  67  73 W3        30.14R
NEW ORLEANS LA CLOUDY    74  67  78 S8        30.09F
OKLAHOMA CITY  MOCLDY    81  71  71 S14       29.93R
ALBUQUERQUE NM CLOUDY    71  57  61 W8        30.12R
SALT LAKE CITY PTCLDY    83  59  44 N10       29.98R
LOS ANGELES CA CLOUDY    65  60  84 W9        29.98R
BOISE ID       MOCLDY    77  52  41 S3        29.94R
SEATTLE WA     PTCLDY    86  45  23 NW7       29.85R
$$

*** WEATHER ACROSS MANITOBA...SASKATCHEWAN AND ONTARIO ***
                ***ONTARIO***

CITY           SKY/WX    TMP DP  RH WIND       PRES   REMARKS
GERALDTON      MOCLDY    68  61  77 S9        29.75F HAZE
THUNDER BAY    LGT RAIN  63  61  94 E6        29.78R
SIOUX LOOKOUT  CLOUDY    59  59 100 CALM      29.79R FOG
TORONTO        MOCLDY    73  61  64 SW7       30.10R
BIG TROUT LK   LGT RAIN  59  55  88 NW13G18   29.66R FOG
PICKLE LAKE    NOT AVBL
DRYDEN         CLOUDY    59  59 100 W5        29.81R FOG
KENORA         MOCLDY    64  61  88 NW8       29.84R SMOKE
$$
                *** MANITOBA***

CITY           SKY/WX    TMP DP  RH WIND       PRES   REMARKS
BRANDON        MOCLDY    59  54  82 N8        29.97R SMOKE
DAUPHIN        MOCLDY    57  48  72 N8        30.01R
ISLAND LAKE    LGT RAIN  48  43  81 NW12G21   29.85R
PILOT MOUND      N/A     59  54  82 N6          N/A
THE PAS        PTCLDY    54  39  58 N9G17     30.04R
THOMPSON       MOCLDY    46  41  81 N12G20    29.95R
WINNIPEG       CLEAR     61  55  82 N9        29.90R SMOKE
LYNN LAKE      CLEAR     52  39  62 E3        30.04R
CHURCHILL      LGT RAIN  41  39  93 N22G29    29.82S
GILLAM         LGT RAIN  46  43  87 N23G29    29.78R
$$
                ***SASKATCHEWAN***

CITY           SKY/WX    TMP DP  RH WIND       PRES   REMARKS
ESTEVAN        CLOUDY    59  50  72 N9        30.03R
KINDERSLEY     CLOUDY    57  50  77 N7        30.15S
LLOYDMINSTER   PTCLDY    57  45  62 SW5       30.15S
PRINCE ALBERT  MOCLDY    55  48  76 W5        30.09R
REGINA         CLOUDY    61  52  72 N12       30.08R
YORKTON        PTCLDY    55  48  76 N8        30.04R



USA.gov is the U.S. government's official web portal to all federal, state and local government web resources and services.